Temp
-0 -0 -0 0 0 0 0 0 0 0 1 1 1 1 1 1 1 2 2 3 4 4 4 4 4 4 4 5 5 5 6 6 7 7 7 8 8 8 9 9 9 9 9 9 10 10 9 10 10 10 10 10
-0 -1 -1 -0 -0 -0 -0 -0 -0 -0 0 1 1 1 1 1 1 1 1 1 2 3 4 4 4 4 4 4 4 5 5 5 5 6 7 7 7 8 8 9 9 9 9 9 9 9 9 9 9 10 10 10
-1 -1 -1 -1 -1 -1 -1 -1 -1 -1 -1 -0 0 1 1 1 1 1 1 1 1 2 2 3 3 4 4 4 4 5 4 5 5 5 6 6 7 7 8 8 8 9 9 9 9 9 8 9 9 9 9 10
-1 -1 -1 -1 -1 -1 -1 -1 -1 -1 -1 -1 -0 0 1 1 1 1 1 1 1 1 1 2 2 3 3 4 4 4 4 4 5 5 6 6 6 7 7 8 8 8 9 9 9 9 8 8 8 9 9 9
-1 -1 -1 -1 -1 -1 -1 -1 -1 -1 -1 -1 -1 -0 -0 0 1 1 1 1 1 1 1 1 1 1 2 2 3 3 4 4 4 5 6 6 6 6 6 7 8 8 8 9 9 8 8 8 7 8 8 8
-1 -1 -1 -1 -1 -1 -1 -1 -1 -1 -1 -1 -1 -1 -1 -0 0 0 1 1 1 1 1 1 1 1 1 1 2 2 3 3 4 4 5 5 6 6 6 6 7 8 8 8 8 8 8 7 7 7 7 8
-1 -1 -1 -1 -1 -1 -1 -1 -1 -1 -1 -2 -1 -1 -1 -1 -1 -0 -0 0 0 1 1 1 1 1 1 1 1 1 2 2 3 3 4 4 5 5 5 5 6 7 7 8 8 8 8 7 7 7 7 7
-2 -2 -2 -2 -2 -2 -2 -1 -1 -1 -1 -2 -2 -2 -1 -1 -1 -1 -0 -0 0 0 1 1 1 1 1 1 1 1 1 2 2 3 3 3 4 4 5 5 5 5 6 7 7 7 7 7 7 7 6 6
-3 -3 -3 -3 -3 -3 -2 -2 -2 -2 -2 -2 -2 -2 -2 -1 -1 -1 -1 -0 -0 0 0 1 1 1 1 1 1 1 2 2 2 2 3 3 4 4 4 5 5 5 5 5 6 6 7 7 7 6 6 6
-4 -4 -4 -4 -4 -4 -4 -3 -3 -3 -2 -2 -2 -2 -2 -2 -1 -1 -1 -1 -0 -0 0 0 0 1 1 1 1 1 2 2 2 2 3 3 3 4 4 4 5 5 5 5 4 5 5 6 7 6 6 6
-6 -6 -5 -5 -5 -5 -5 -5 -4 -4 -3 -3 -3 -3 -3 -2 -2 -1 -1 -1 -1 -1 -0 -0 0 0 0 0 1 1 1 2 2 2 2 3 3 3 3 4 4 5 5 5 4 4 4 4 6 6 6 6
-6 -6 -6 -6 -6 -6 -6 -6 -6 -6 -5 -5 -4 -4 -4 -4 -4 -3 -2 -2 -1 -1 -1 -1 -0 -0 0 0 0 0 1 1 1 2 2 2 2 3 3 3 4 4 4 4 4 4 3 3 4 5 6 5
-7 -7 -7 -7 -7 -7 -7 -6 -7 -7 -7 -6 -6 -6 -5 -5 -5 -5 -4 -3 -3 -3 -2 -2 -1 -1 -1 -0 -0 0 0 0 1 1 2 2 2 2 2 3 3 3 3 4 4 4 3 3 2 3 4 5
-7 -7 -7 -7 -7 -7 -7 -7 -7 -7 -7 -7 -7 -7 -7 -6 -6 -6 -6 -5 -5 -4 -4 -3 -3 -2 -2 -1 -1 -0 -0 -0 0 1 1 2 2 2 2 2 2 3 3 3 3 3 3 3 2 2 2 3
-7 -7 -7 -7 -7 -7 -7 -7 -7 -7 -7 -8 -8 -8 -7 -7 -7 -7 -7 -6 -6 -6 -5 -5 -4 -4 -4 -3 -2 -1 -1 -1 -1 -0 0 1 1 1 2 2 2 2 2 2 2 3 3 3 2 2 2 2
-7 -7 -7 -7 -7 -7 -7 -7 -8 -8 -8 -8 -8 -8 -8 -8 -8 -8 -8 -7 -7 -7 -6 -6 -6 -5 -5 -5 -4 -3 -3 -2 -2 -1 -0 -0 0 1 1 1 1 1 2 2 2 2 3 3 2 2 2 1
-7 -7 -7 -7 -7 -7 -7 -7 -8 -8 -8 -8 -8 -8 -8 -8 -9 -9 -9 -8 -8 -7 -7 -7 -6 -6 -6 -6 -5 -5 -4 -4 -3 -2 -2 -1 -0 0 0 1 1 1 1 1 1 2 2 2 2 2 2 2
-7 -7 -7 -8 -7 -8 -8 -8 -8 -8 -8 -8 -8 -8 -9 -9 -9 -9 -9 -9 -9 -9 -8 -8 -7 -7 -7 -7 -7 -6 -6 -5 -5 -4 -3 -2 -2 -1 -0 0 1 1 1 1 1 1 1 1 1 2 2 2
-8 -8 -8 -8 -8 -8 -8 -8 -8 -8 -8 -8 -8 -9 -9 -9 -9 -9 -9 -9 -9 -9 -9 -9 -8 -8 -8 -8 -8 -7 -7 -7 -6 -6 -5 -5 -3 -2 -2 -1 -0 0 1 1 1 1 1 1 1 1 2 2
-8 -8 -9 -9 -8 -8 -8 -8 -9 -9 -8 -8 -9 -9 -9 -9 -9 -9 -9 -9 -9 -9 -9 -9 -9 -9 -9 -8 -8 -8 -8 -8 -7 -7 -7 -6 -6 -5 -3 -2 -1 -1 -1 0 1 1 1 1 0 0 1 2
-9 -9 -9 -9 -9 -9 -9 -9 -9 -9 -9 -9 -9 -9 -10 -10 -10 -10 -10 -10 -10 -10 -10 -10 -9 -9 -9 -9 -9 -9 -8 -8 -8 -8 -8 -7 -7 -7 -6 -5 -3 -2 -2 -1 0 1 1 1 1 1 1 1
-10 -10 -10 -10 -10 -10 -10 -10 -10 -10 -9 -9 -10 -10 -10 -10 -10 -10 -10 -10 -10 -10 -10 -10 -10 -10 -10 -10 -9 -9 -9 -9 -8 -8 -8 -8 -8 -8 -7 -7 -6 -4 -3 -3 -2 -0 1 1 1 1 1 1
-10 -11 -11 -11 -11 -11 -10 -10 -10 -10 -10 -10 -10 -10 -10 -11 -11 -11 -11 -10 -10 -10 -10 -10 -10 -10 -10 -10 -10 -10 -10 -10 -9 -9 -8 -8 -8 -8 -8 -7 -7 -6 -5 -4 -3 -2 -0 1 1 1 1 1
-11 -11 -12 -12 -12 -12 -11 -11 -11 -11 -11 -11 -11 -11 -11 -11 -11 -11 -11 -11 -11 -10 -10 -10 -10 -10 -10 -10 -10 -10 -10 -10 -10 -10 -9 -9 -9 -8 -8 -8 -7 -7 -7 -6 -4 -3 -2 -0 0 1 1 1
-11 -12 -12 -12 -13 -13 -12 -12 -12 -12 -12 -12 -12 -12 -12 -12 -12 -11 -11 -11 -11 -11 -11 -10 -10 -10 -10 -10 -11 -11 -11 -11 -11 -11 -11 -10 -10 -9 -9 -8 -8 -8 -7 -7 -6 -4 -3 -1 -0 0 1 1
-12 -13 -13 -13 -13 -13 -14 -14 -13 -13 -13 -13 -13 -13 -13 -12 -12 -12 -12 -11 -11 -11 -11 -11 -11 -11 -11 -11 -11 -11 -11 -11 -11 -11 -11 -11 -11 -11 -10 -10 -9 -9 -8 -8 -8 -7 -4 -2 -0 -0 -0 -0
-13 -13 -13 -14 -14 -14 -14 -14 -14 -14 -14 -14 -14 -13 -13 -12 -12 -12 -12 -12 -12 -11 -11 -11 -11 -11 -11 -12 -12 -12 -12 -12 -12 -12 -12 -12 -12 -12 -11 -11 -11 -10 -10 -10 -9 -8 -7 -5 -3 -1 -0 -1
-13 -13 -14 -14 -14 -14 -15 -15 -15 -15 -15 -15 -14 -14 -13 -13 -13 -12 -12 -12 -12 -12 -12 -12 -12 -12 -12 -12 -12 -13 -12 -12 -12 -12 -12 -12 -12 -12 -12 -12 -11 -11 -10 -11 -10 -10 -9 -8 -7 -5 -2 -2
-13 -13 -14 -14 -14 -14 -14 -14 -15 -15 -15 -15 -15 -14 -14 -13 -13 -12 -12 -12 -12 -12 -12 -12 -12 -12 -13 -13 -13 -13 -13 -13 -13 -13 -13 -13 -13 -13 -13 -13 -12 -11 -11 -11 -11 -11 -11 -10 -9 -8 -6 -5
-13 -13 -14 -14 -15 -15 -14 -15 -15 -16 -15 -15 -15 -15 -14 -13 -13 -13 -12 -12 -12 -12 -12 -12 -12 -13 -14 -14 -14 -14 -14 -14 -14 -14 -13 -13 -13 -13 -13 -13 -13 -12 -12 -11 -11 -11 -12 -11 -10 -9 -8 -8
-13 -14 -15 -15 -15 -15 -15 -15 -15 -15 -15 -15 -15 -14 -14 -13 -13 -13 -13 -13 -12 -12 -12 -13 -13 -13 -14 -14 -15 -15 -15 -15 -15 -15 -14 -14 -14 -14 -14 -14 -13 -13 -12 -12 -11 -10 -11 -11 -11 -10 -9 -9
Height
1560 1558 1556 1554 1552 1550 1548 1547 1545 1543 1541 1539 1537 1533 1531 1529 1528 1526 1526 1524 1522 1521 1520 1519 1518 1518 1517 1516 1515 1514 1513 1512 1512 1512 1512 1512 1513 1513 1514 1515 1516 1518 1519 1520 1522 1521 1522 1523 1524 1525 1525 1526
1560 1558 1556 1554 1552 1550 1548 1546 1544 1542 1540 1538 1536 1533 1532 1530 1528 1526 1525 1523 1521 1520 1520 1519 1518 1517 1516 1515 1514 1514 1513 1512 1511 1511 1511 1510 1511 1511 1512 1513 1514 1516 1516 1518 1519 1520 1520 1521 1523 1523 1524 1524
1559 1557 1556 1554 1552 1550 1548 1546 1544 1541 1539 1537 1535 1534 1532 1530 1528 1527 1525 1523 1521 1520 1519 1518 1518 1517 1515 1514 1514 1513 1513 1512 1511 1511 1510 1509 1509 1510 1510 1512 1513 1514 1514 1515 1516 1517 1518 1520 1521 1522 1522 1523
1559 1557 1555 1553 1552 1549 1547 1545 1543 1541 1539 1537 1535 1533 1532 1530 1528 1527 1525 1524 1522 1521 1520 1519 1517 1516 1515 1514 1514 1513 1512 1511 1510 1510 1509 1509 1509 1508 1509 1510 1511 1511 1512 1513 1513 1514 1516 1518 1519 1520 1521 1522
1558 1556 1554 1552 1551 1549 1547 1545 1543 1541 1539 1536 1534 1533 1531 1529 1528 1527 1526 1524 1523 1523 1522 1520 1518 1516 1515 1514 1513 1512 1511 1510 1510 1509 1509 1508 1508 1508 1508 1508 1509 1509 1510 1510 1511 1512 1514 1516 1517 1519 1520 1521
1556 1554 1553 1551 1549 1548 1546 1544 1542 1540 1538 1536 1533 1532 1531 1529 1528 1527 1526 1524 1524 1523 1522 1521 1519 1517 1516 1514 1513 1512 1510 1510 1509 1508 1508 1507 1507 1507 1508 1507 1507 1507 1508 1508 1509 1510 1511 1513 1514 1516 1518 1519
1554 1553 1551 1549 1548 1546 1545 1543 1542 1539 1537 1535 1533 1531 1530 1529 1528 1526 1525 1524 1523 1522 1521 1521 1519 1518 1516 1515 1513 1511 1510 1509 1508 1507 1507 1506 1506 1506 1507 1506 1504 1504 1505 1506 1507 1508 1508 1509 1511 1513 1515 1517
1552 1550 1548 1547 1545 1544 1543 1541 1540 1539 1537 1535 1532 1531 1529 1528 1527 1526 1525 1523 1522 1521 1520 1519 1518 1517 1516 1514 1513 1511 1510 1509 1508 1507 1507 1505 1505 1504 1505 1504 1503 1502 1502 1503 1504 1505 1506 1507 1508 1510 1512 1514
1550 1548 1546 1545 1543 1542 1540 1539 1538 1537 1535 1533 1531 1530 1528 1526 1525 1524 1523 1522 1521 1520 1518 1517 1517 1516 1515 1513 1512 1511 1510 1508 1508 1507 1506 1505 1503 1502 1502 1502 1502 1501 1501 1501 1502 1503 1503 1504 1505 1507 1509 1511
1548 1546 1544 1543 1541 1539 1538 1537 1535 1534 1533 1532 1530 1528 1527 1525 1523 1521 1520 1519 1518 1517 1517 1516 1515 1514 1513 1512 1510 1510 1508 1507 1506 1506 1505 1503 1501 1501 1500 1500 1500 1500 1500 1501 1501 1501 1500 1501 1502 1504 1506 1508
1547 1545 1543 1541 1539 1538 1536 1535 1533 1532 1530 1529 1528 1526 1525 1523 1521 1520 1518 1516 1516 1515 1514 1514 1513 1512 1511 1510 1509 1508 1506 1505 1504 1503 1502 1501 1500 1500 1499 1499 1499 1499 1499 1500 1501 1500 1499 1499 1500 1501 1502 1504
1545 1544 1542 1540 1538 1536 1535 1533 1532 1530 1528 1527 1526 1525 1523 1522 1520 1518 1516 1514 1513 1512 1512 1511 1511 1510 1509 1508 1507 1506 1505 1504 1503 1502 1501 1500 1499 1499 1499 1498 1498 1498 1498 1498 1499 1500 1501 1500 1498 1498 1500 1501
1544 1542 1540 1539 1537 1535 1534 1532 1531 1529 1527 1525 1524 1523 1522 1520 1518 1516 1515 1513 1511 1510 1509 1508 1508 1507 1507 1506 1505 1504 1503 1502 1502 1501 1500 1499 1498 1498 1498 1497 1497 1497 1497 1497 1497 1498 1500 1500 1497 1496 1497 1498
1541 1539 1538 1537 1535 1533 1532 1531 1530 1528 1526 1525 1523 1521 1520 1519 1517 1515 1513 1512 1510 1509 1507 1506 1505 1505 1504 1504 1502 1501 1501 1500 1500 1500 1499 1498 1497 1497 1496 1496 1496 1495 1496 1496 1496 1496 1497 1497 1496 1496 1495 1496
1539 1537 1535 1534 1532 1531 1530 1529 1528 1527 1525 1524 1522 1520 1518 1517 1516 1514 1512 1511 1509 1508 1506 1505 1503 1503 1502 1501 1500 1499 1499 1499 1498 1498 1498 1497 1496 1495 1494 1494 1494 1494 1494 1494 1495 1494 1493 1494 1494 1495 1495 1494
1537 1535 1533 1532 1530 1529 1528 1527 1526 1525 1524 1522 1521 1519 1517 1515 1514 1512 1510 1509 1508 1507 1505 1504 1502 1501 1500 1499 1499 1498 1497 1496 1496 1496 1495 1495 1494 1494 1493 1493 1492 1492 1492 1493 1493 1492 1491 1491 1493 1494 1495 1494
1535 1534 1532 1530 1529 1527 1525 1524 1523 1522 1522 1521 1520 1518 1516 1514 1512 1510 1509 1507 1506 1505 1504 1503 1501 1500 1499 1498 1497 1496 1495 1494 1494 1493 1493 1493 1492 1492 1492 1491 1491 1491 1490 1490 1490 1490 1489 1489 1490 1492 1493 1493
1533 1531 1530 1528 1527 1525 1524 1522 1521 1520 1519 1518 1518 1517 1515 1513 1511 1509 1507 1506 1504 1503 1502 1501 1500 1498 1497 1496 1495 1494 1493 1492 1492 1491 1490 1490 1490 1490 1490 1489 1489 1489 1488 1488 1488 1488 1487 1487 1487 1489 1490 1491
1531 1529 1527 1525 1525 1523 1522 1521 1519 1518 1516 1515 1515 1515 1513 1512 1510 1508 1506 1504 1502 1501 1500 1499 1498 1497 1495 1494 1493 1492 1491 1491 1490 1489 1489 1488 1487 1487 1487 1487 1487 1486 1486 1486 1486 1486 1486 1486 1486 1486 1487 1488
1527 1526 1524 1523 1522 1521 1520 1519 1518 1516 1514 1513 1512 1511 1511 1510 1509 1506 1504 1502 1501 1499 1499 1497 1496 1495 1494 1492 1491 1490 1489 1489 1489 1488 1487 1487 1486 1485 1484 1485 1485 1484 1484 1483 1483 1483 1484 1484 1484 1484 1484 1485
1524 1522 1521 1520 1519 1517 1516 1516 1515 1514 1512 1510 1509 1508 1508 1507 1506 1504 1502 1500 1499 1498 1497 1496 1494 1493 1492 1491 1490 1489 1488 1488 1487 1487 1485 1485 1485 1484 1483 1482 1482 1482 1481 1481 1480 1480 1480 1481 1481 1481 1481 1482
1521 1519 1518 1517 1516 1515 1513 1512 1512 1511 1510 1508 1506 1505 1505 1504 1503 1502 1500 1498 1497 1496 1495 1494 1493 1491 1490 1490 1489 1488 1487 1487 1486 1486 1484 1483 1483 1484 1482 1481 1480 1479 1479 1478 1478 1477 1477 1478 1478 1478 1478 1479
1517 1516 1514 1513 1512 1512 1510 1509 1509 1508 1507 1506 1504 1503 1502 1501 1500 1498 1497 1496 1495 1494 1493 1492 1491 1490 1489 1488 1487 1486 1485 1485 1484 1483 1483 1481 1481 1481 1481 1480 1479 1478 1477 1476 1475 1475 1475 1475 1475 1475 1475 1475
1514 1512 1510 1508 1507 1507 1506 1506 1505 1504 1504 1503 1502 1501 1500 1498 1496 1495 1494 1493 1492 1492 1491 1490 1489 1488 1487 1486 1485 1484 1483 1483 1482 1481 1480 1479 1478 1478 1478 1479 1478 1477 1475 1474 1472 1472 1472 1472 1472 1472 1473 1473
1510 1508 1506 1504 1503 1502 1501 1501 1500 1499 1499 1499 1498 1498 1496 1494 1493 1493 1492 1491 1490 1489 1488 1487 1486 1485 1485 1484 1483 1482 1481 1481 1480 1479 1478 1477 1477 1476 1475 1475 1476 1476 1474 1472 1470 1469 1468 1469 1470 1470 1470 1470
1508 1506 1504 1502 1500 1498 1497 1496 1495 1494 1494 1494 1493 1492 1491 1490 1490 1490 1489 1488 1487 1486 1485 1484 1484 1483 1482 1481 1481 1480 1479 1478 1478 1477 1477 1475 1475 1475 1474 1473 1473 1474 1474 1472 1470 1469 1466 1465 1466 1467 1468 1468
1505 1504 1502 1500 1498 1496 1494 1492 1491 1490 1490 1489 1488 1488 1487 1487 1487 1486 1486 1485 1484 1484 1483 1482 1481 1480 1479 1478 1478 1477 1476 1475 1475 1474 1474 1474 1473 1472 1472 1471 1472 1473 1473 1472 1471 1470 1468 1466 1465 1464 1464 1465
1502 1500 1499 1497 1495 1493 1491 1490 1488 1487 1486 1485 1484 1484 1484 1484 1484 1484 1483 1483 1482 1480 1479 1478 1478 1477 1476 1475 1475 1474 1473 1472 1472 1471 1471 1471 1471 1470 1469 1468 1469 1471 1472 1472 1471 1471 1469 1469 1467 1464 1463 1462
1499 1497 1495 1493 1492 1491 1489 1487 1486 1484 1483 1482 1482 1481 1481 1481 1481 1481 1480 1480 1479 1477 1476 1475 1474 1473 1472 1471 1471 1470 1470 1469 1469 1468 1468 1468 1469 1468 1467 1466 1466 1467 1469 1470 1471 1472 1470 1470 1468 1465 1464 1461
1496 1494 1493 1491 1489 1488 1486 1485 1483 1482 1480 1479 1479 1478 1478 1478 1478 1477 1477 1476 1475 1474 1473 1472 1470 1469 1468 1467 1467 1466 1466 1466 1465 1465 1465 1466 1466 1465 1465 1464 1463 1463 1465 1467 1468 1470 1470 1470 1469 1466 1466 1464
1494 1493 1491 1490 1488 1486 1484 1483 1481 1480 1479 1477 1476 1476 1475 1475 1475 1474 1473 1472 1472 1471 1470 1469 1467 1466 1465 1464 1464 1463 1463 1462 1462 1462 1462 1463 1462 1462 1462 1462 1461 1460 1462 1462 1463 1466 1466 1467 1467 1467 1467 1467
Wind_Speed
19 20 20 20 21 21 21 21 20 20 21 21 21 19 18 17 17 19 20 19 17 15 14 12 10 9 8 6 4 4 6 9 12 15 19 22 23 24 24 25 24 19 16 18 22 23 22 20 18 17 16 15
19 20 21 21 22 23 23 23 23 22 22 21 21 20 18 18 17 18 19 21 21 19 17 15 12 11 11 11 8 6 5 5 5 8 15 19 21 22 23 25 25 21 18 16 19 22 21 19 17 16 16 15
22 22 22 22 22 23 24 25 25 25 25 23 21 20 19 18 18 18 18 19 20 21 21 19 16 14 12 13 12 11 9 8 7 5 9 14 17 18 21 23 24 24 21 17 19 22 21 20 18 17 16 15
25 25 25 24 24 24 24 25 26 27 27 27 24 22 21 19 18 18 17 17 18 18 19 20 19 18 16 14 14 14 12 12 11 9 8 10 12 15 17 20 23 25 24 21 21 23 22 21 20 18 16 16
29 28 28 27 27 27 26 26 27 28 28 29 27 25 24 23 21 19 18 17 17 16 17 18 19 19 19 17 16 16 14 14 14 13 11 10 11 12 14 17 20 24 26 24 21 23 24 22 21 18 16 16
30 30 30 30 30 30 30 29 29 29 29 30 30 28 27 26 24 22 21 20 18 17 16 16 17 17 18 18 17 17 16 15 14 14 13 12 12 12 12 13 18 22 26 25 23 23 24 25 23 20 19 18
31 30 30 30 30 30 31 31 31 31 30 30 31 30 29 28 27 25 24 23 22 19 17 16 16 16 16 16 16 16 17 16 15 14 14 13 12 12 12 12 13 18 23 25 24 22 23 27 26 23 22 20
29 29 29 28 28 28 28 29 29 30 30 30 30 30 30 29 28 27 26 25 24 22 20 17 16 16 15 15 15 15 15 14 14 14 14 14 13 12 12 13 12 11 16 21 23 19 20 28 29 25 24 23
27 27 27 27 27 27 26 26 26 26 27 28 29 30 29 29 28 27 28 27 26 24 23 21 19 17 16 16 15 15 14 13 12 12 13 13 14 14 12 13 14 12 10 14 17 15 16 25 30 27 25 25
26 26 26 27 27 28 28 28 28 26 25 24 26 27 28 28 28 28 28 28 28 26 25 24 22 21 18 18 17 16 15 15 14 12 12 12 13 15 15 14 15 15 14 12 12 10 11 18 27 29 27 26
26 26 27 28 29 30 31 31 30 29 27 24 23 23 24 25 26 27 28 28 28 27 26 25 24 23 21 20 19 18 17 16 16 15 13 12 13 14 16 17 17 17 17 17 16 13 8 10 20 27 29 28
25 25 26 27 28 30 30 30 29 29 28 27 24 21 20 22 23 25 26 27 27 26 26 25 24 23 23 22 20 19 19 18 16 16 15 13 13 13 15 17 18 19 19 19 20 20 16 9 12 20 26 29
23 23 24 25 27 28 28 27 27 28 28 27 26 24 20 19 21 23 24 25 25 25 25 24 24 23 23 22 22 21 19 19 18 16 16 15 14 14 15 16 18 20 20 20 21 23 23 18 9 11 18 25
20 20 20 22 24 25 25 24 25 27 26 26 27 27 24 19 19 21 22 23 24 24 24 24 24 23 22 22 22 22 21 19 19 18 17 16 15 15 15 16 17 20 22 21 22 23 26 25 17 10 10 17
19 19 18 21 23 23 23 22 24 26 26 26 25 25 26 24 21 20 21 21 22 23 23 24 24 23 22 21 21 22 22 20 19 18 17 17 17 15 15 16 16 18 21 22 23 24 26 28 25 19 13 11
19 19 20 21 22 23 23 22 22 23 25 25 23 22 24 24 23 23 23 22 22 22 22 23 23 23 22 21 21 21 21 20 19 19 18 18 18 17 16 16 17 18 19 21 23 25 26 29 29 26 21 15
22 22 22 22 22 23 24 23 21 20 21 25 23 21 21 21 22 23 24 25 24 23 22 21 21 22 22 21 21 21 20 20 20 20 19 19 19 19 18 18 17 18 19 19 21 23 25 27 29 28 26 22
28 28 28 27 25 24 23 22 21 18 17 20 21 20 19 18 19 21 23 24 23 23 23 22 22 21 21 21 21 21 21 20 19 19 20 20 20 19 19 19 18 18 19 19 20 21 23 25 27 28 28 27
34 34 33 31 29 26 22 18 18 18 14 13 17 19 18 16 17 19 20 21 21 22 23 24 23 21 20 20 21 21 21 21 20 19 19 19 20 20 19 19 19 19 20 20 21 21 22 23 24 27 29 29
37 35 34 32 31 28 25 21 18 17 13 10 11 14 13 14 15 15 17 19 20 22 22 23 23 23 22 21 21 21 21 21 21 20 20 18 18 20 21 20 19 19 20 21 22 22 22 23 23 25 28 30
36 35 33 32 31 30 28 26 22 18 13 9 9 10 9 10 12 14 16 18 20 21 22 23 24 24 25 25 25 24 23 22 22 22 22 20 18 18 21 21 21 21 21 21 23 23 23 24 24 25 26 29
35 34 34 33 31 30 28 27 24 19 15 10 9 10 10 11 12 14 17 19 20 21 22 23 23 24 25 26 27 28 28 26 25 24 24 24 22 19 20 22 22 22 22 23 24 25 25 25 25 26 26 28
35 36 36 34 31 29 28 27 24 21 18 14 11 11 12 13 14 16 17 19 20 20 22 23 23 25 25 26 28 30 32 31 30 28 27 27 26 23 22 22 23 23 23 25 25 26 26 26 26 26 27 27
38 38 37 35 33 31 29 29 28 27 25 21 17 15 15 16 17 17 17 19 20 21 22 24 26 27 26 27 30 32 34 34 33 32 31 31 31 29 27 24 23 23 24 25 27 28 28 28 27 27 27 27
38 36 35 35 35 33 32 32 33 32 29 28 25 21 21 22 21 20 20 20 21 22 23 25 27 28 28 30 31 33 34 34 34 33 33 34 34 32 30 27 24 21 22 25 26 28 30 30 29 28 27 27
36 34 33 34 35 34 34 34 34 33 29 28 28 26 25 25 24 24 23 23 23 24 24 26 27 28 29 31 32 33 34 34 34 34 34 35 35 33 28 25 23 20 19 21 22 24 27 30 30 29 27 26
35 33 33 34 35 35 35 33 31 28 25 25 26 26 27 28 27 27 27 26 26 26 27 27 29 30 32 33 34 35 35 35 35 34 35 35 34 31 26 23 21 18 16 18 20 19 20 22 23 26 26 23
34 33 33 33 33 31 30 27 23 19 17 19 22 24 26 27 28 29 29 29 30 30 31 32 33 34 35 35 34 34 34 35 34 34 33 31 28 26 26 25 23 19 16 16 17 16 16 16 17 19 21 22
30 28 28 27 27 25 22 21 19 17 16 17 18 21 24 26 27 29 30 31 32 33 35 36 36 35 35 34 33 32 32 33 32 31 30 27 25 25 26 27 27 24 20 17 15 14 16 14 13 15 19 23
24 23 23 23 22 21 22 22 19 18 19 18 18 19 21 23 25 26 28 29 31 32 33 33 33 32 31 30 30 30 30 30 30 30 29 28 27 28 28 28 29 29 25 22 20 18 17 15 16 20 22 23
21 22 22 22 22 22 23 23 20 19 19 19 18 18 18 19 20 21 22 24 25 26 26 27 27 27 26 25 25 25 25 25 24 25 26 26 26 27 27 28 31 31 30 28 25 22 21 20 20 21 21 22
Wind_Direction
348 349 352 353 354 356 356 354 352 351 349 350 352 350 346 336 320 316 321 323 319 309 304 304 306 305 298 288 251 228 210 195 191 195 202 206 206 209 213 217 220 218 220 222 224 226 220 214 215 219 225 226
342 346 348 350 352 354 355 355 353 351 348 344 345 346 347 347 342 332 326 327 325 316 311 307 303 304 301 298 285 269 264 234 205 197 201 205 207 210 213 215 217 215 214 216 218 223 220 213 211 215 221 223
335 339 341 343 345 348 351 353 353 352 349 344 340 339 340 343 346 345 338 335 332 325 319 314 309 308 304 297 285 274 274 270 265 251 219 209 207 211 215 214 215 214 214 211 206 214 216 208 206 211 216 218
330 331 332 335 336 338 342 345 348 348 347 344 340 337 336 337 338 342 342 340 338 337 332 324 319 317 312 302 290 284 277 274 275 270 255 236 218 211 212 212 213 212 212 211 205 208 210 203 202 207 211 215
327 326 324 325 326 328 330 334 338 340 342 340 338 335 334 334 334 335 337 338 338 340 344 340 332 328 323 316 306 302 290 280 279 271 263 256 242 229 214 204 206 210 209 211 211 208 208 206 201 201 207 213
326 324 321 320 318 319 319 322 325 329 333 334 333 333 332 330 329 330 330 332 334 334 340 345 343 339 334 327 319 313 305 295 290 280 269 260 252 251 239 210 199 204 207 209 211 206 205 205 197 194 202 209
321 321 320 319 316 314 313 313 315 318 322 326 327 327 328 327 325 324 325 325 326 327 329 333 339 342 342 335 327 318 311 305 299 291 280 269 259 254 252 238 209 198 202 207 210 207 203 200 194 191 197 202
318 317 317 317 316 314 312 310 310 311 313 315 318 320 321 321 320 319 318 319 318 319 319 321 324 329 334 334 331 324 316 308 300 294 288 278 269 262 254 253 244 213 199 202 206 206 201 197 194 193 195 197
322 320 318 317 317 316 316 315 311 309 309 309 309 311 312 313 313 313 312 311 311 312 313 314 314 315 321 324 326 325 320 314 304 296 292 286 278 274 267 259 256 251 229 207 204 201 195 194 193 195 197 196
330 326 323 322 321 320 320 320 317 314 310 308 305 304 304 304 303 304 305 305 306 307 307 309 310 310 313 315 316 317 318 317 313 304 297 295 289 282 278 271 262 261 259 248 236 214 191 191 194 196 197 196
334 333 330 330 328 327 327 326 324 321 317 314 310 304 300 297 296 295 297 299 300 302 303 304 305 307 309 310 310 309 311 312 313 311 303 297 294 289 284 278 269 265 264 264 266 259 234 199 195 196 196 197
332 334 333 334 334 332 332 332 331 329 326 322 320 315 302 294 292 290 289 292 295 297 297 299 300 301 302 305 306 305 306 305 307 309 307 298 289 286 286 282 275 270 267 265 266 269 269 254 202 193 195 198
328 329 330 331 331 330 331 332 333 332 331 330 329 325 314 300 294 291 288 288 291 293 294 294 295 295 296 298 300 300 300 301 300 300 302 300 289 281 280 281 278 273 272 269 266 265 268 271 247 200 195 196
314 316 320 318 317 320 325 328 329 331 331 332 332 329 325 315 303 297 294 292 291 292 293 293 292 293 293 293 293 294 294 295 296 295 294 296 292 283 276 276 278 275 274 273 270 265 264 269 269 255 221 198
304 303 305 302 304 310 317 323 324 326 327 327 330 331 329 325 317 307 302 298 295 295 295 295 295 295 295 293 290 288 289 289 289 289 288 289 289 286 279 275 275 274 273 273 273 269 262 261 265 269 263 229
306 302 301 300 304 308 310 314 317 320 322 321 325 329 328 328 324 317 312 308 304 302 300 300 300 300 300 297 292 287 286 285 284 283 281 281 282 282 281 277 275 274 272 271 272 272 266 259 259 264 266 262
304 301 300 301 304 306 304 303 303 307 314 315 319 324 323 322 320 318 319 318 315 312 307 305 305 304 304 300 295 291 288 285 282 280 277 276 275 275 276 274 273 271 268 267 268 271 272 266 261 260 259 262
303 301 300 299 299 301 300 298 294 295 303 308 314 317 314 314 314 313 317 319 319 317 314 312 310 308 307 304 300 297 293 289 286 283 281 278 274 271 271 270 269 268 265 263 262 264 268 271 269 264 258 257
306 303 301 299 297 295 294 296 297 296 295 299 309 309 306 307 308 307 309 310 311 314 316 316 315 312 309 306 303 300 296 293 290 287 285 283 281 276 270 266 265 266 265 261 259 258 258 263 269 267 262 257
306 304 302 301 299 296 290 288 293 296 288 285 294 298 303 307 301 297 296 298 301 306 311 313 313 311 308 305 303 301 299 296 294 292 288 286 287 284 278 270 263 261 263 261 257 256 255 255 261 265 264 261
305 305 304 303 302 300 294 288 286 287 280 269 267 270 288 300 293 288 288 290 294 299 304 306 307 307 307 306 305 305 304 302 301 299 295 289 288 289 285 278 270 263 262 262 257 255 255 254 255 258 262 262
304 305 305 304 301 297 295 291 286 280 271 260 259 263 273 282 283 284 285 286 288 292 296 298 301 303 304 306 307 307 305 304 303 300 298 294 290 289 289 286 280 274 268 266 261 256 253 253 253 254 257 259
307 307 306 305 302 295 290 288 285 280 272 264 264 268 273 278 280 281 281 283 284 286 288 290 293 295 298 302 304 305 304 304 302 299 297 296 293 290 289 287 284 281 276 270 266 261 256 252 251 251 252 255
311 310 309 308 306 301 295 290 287 285 281 276 274 276 278 278 276 277 279 281 282 284 284 285 288 289 291 295 298 301 301 301 302 301 300 299 298 295 292 287 281 279 279 275 269 264 260 256 253 250 249 251
313 312 310 310 309 307 303 299 296 292 287 282 280 279 279 276 275 276 277 279 281 283 283 284 284 284 286 290 294 296 297 297 297 298 299 300 300 300 299 294 287 279 278 279 277 271 263 255 253 254 253 252
313 311 308 308 307 305 304 303 300 298 293 286 281 278 275 273 273 275 277 278 280 281 281 282 282 283 285 289 292 293 293 293 293 294 295 298 300 300 300 297 293 289 284 285 291 290 277 263 256 255 256 260
313 310 307 304 302 303 303 303 302 298 291 282 276 272 272 272 272 274 276 278 280 281 281 282 282 284 287 289 291 291 290 289 290 291 293 295 297 297 295 292 290 290 290 293 296 297 289 287 282 264 255 259
311 308 305 301 301 302 303 305 305 295 279 270 269 268 268 270 271 272 274 276 279 281 283 284 285 287 288 290 290 289 287 286 288 289 290 290 290 291 292 290 288 284 280 286 296 301 296 301 302 277 266 270
311 309 306 304 305 307 309 313 313 303 290 279 274 271 269 269 270 271 273 275 277 280 282 284 286 288 289 289 288 286 285 284 284 285 284 285 284 284 286 288 289 284 276 271 275 290 295 292 293 285 290 291
317 320 316 312 314 316 319 320 318 312 308 302 294 286 280 277 276 277 278 278 279 280 282 285 287 289 289 288 287 286 285 283 282 281 281 283 283 281 280 282 284 282 279 273 261 262 274 274 276 284 292 296
324 330 324 318 316 316 318 317 314 312 312 312 308 302 296 291 289 287 287 285 285 285 286 287 287 288 288 288 288 287 287 287 286 284 282 282 282 281 279 278 279 280 279 277 265 256 260 261 261 271 279 283